This is the latest recevied weather packets stored in our database for station/object W5GMO. If no packets are shown the sender has not sent any weather packets the latest 10 day(s).
| Time | Temp. | Humidity | Pressure | Rain* | Wind** | Luminosity | Snow |
|---|---|---|---|---|---|---|---|
| 1788546557 | 33.89° C | 1% | 1013.5 hPa | 0 mm | - | 617 W/m² | - |
| 1788546252 | 33.33° C | 1% | 1013.4 hPa | 0 mm | - | 521 W/m² | - |
| 1788545946 | 32.22° C | 1% | 1013.5 hPa | 0 mm | - | 661 W/m² | - |
| 1788545641 | 32.78° C | 1% | 1013.7 hPa | 0 mm | - | 661 W/m² | - |
| 1788545337 | 33.33° C | 1% | 1013.8 hPa | 0 mm | - | 578 W/m² | - |
| 1788545032 | 33.89° C | 1% | 1013.7 hPa | 0 mm | - | 656 W/m² | - |
| 1788544731 | 33.33° C | 1% | 1013.6 hPa | 0 mm | - | 588 W/m² | - |
| 1788544430 | 32.78° C | 1% | 1013.6 hPa | 0 mm | - | 660 W/m² | - |
| 1788544124 | 32.78° C | 1% | 1013.7 hPa | 0 mm | - | 632 W/m² | - |
| 1788543820 | 33.33° C | 1% | 1013.6 hPa | 0 mm | - | 680 W/m² | - |
| 1788543516 | 33.33° C | 1% | 1013.5 hPa | 0 mm | - | 678 W/m² | - |
| 1788543211 | 32.78° C | 1% | 1013.7 hPa | 0 mm | - | 640 W/m² | - |
| 1788542907 | 32.78° C | 1% | 1013.9 hPa | 0 mm | - | 670 W/m² | - |
| 1788542606 | 32.78° C | 1% | 1013.7 hPa | 0 mm | - | 746 W/m² | - |
| 1788542301 | 31.67° C | 1% | 1013.8 hPa | 0 mm | - | 710 W/m² | - |
| 1788541997 | 31.67° C | 1% | 1014 hPa | 0 mm | - | 707 W/m² | - |
| 1788541693 | 31.67° C | 1% | 1013.8 hPa | 0 mm | - | 702 W/m² | - |
| 1788541389 | 32.22° C | 1% | 1013.9 hPa | 0 mm | - | 710 W/m² | - |
| 1788541088 | 31.67° C | 1% | 1013.9 hPa | 0 mm | - | 694 W/m² | - |
| 1788540782 | 30.56° C | 1% | 1013.9 hPa | 0 mm | - | 669 W/m² | - |
| 1788540482 | 32.22° C | 1% | 1014.3 hPa | 0 mm | - | 667 W/m² | - |
| 1788540177 | 32.22° C | 1% | 1014.1 hPa | 0 mm | - | 723 W/m² | - |
| 1788539874 | 32.22° C | 1% | 1014.1 hPa | 0 mm | - | 727 W/m² | - |
| 1788539568 | 31.67° C | 1% | 1014.4 hPa | 0 mm | - | 720 W/m² | - |
| 1788539267 | 30.56° C | 1% | 1014.6 hPa | 0 mm | - | 715 W/m² | - |
* Rain latest hour (hover to see other rain measurements)
** Current wind speed in m/s (hover to see current wind gust speed)